Weather in Guaymas

Mexico     27°55′13″N   110°54′10″W
temp.,
°C
wind,
m/s
gust,
m/s
humid.,
%
clouds,
%
prec.,
mm/h
press.,
hPa
HPBL,
m
1 july, fri
fri123:00+29s33678 0.0 1012311
02:00+29sse456916 0.0 1012489
05:00+28se35690 0.0 1012391
08:00+29se456249 0.0 1013643
11:00+32s435256 0.0 1013837
14:00+33ssw435227 0.0 1011918
17:00+32sw54550 0.0 1008479
20:00+31wsw22573 0.0 1008254
2 july, sat
sat223:00+31sse115730 0.2 1010158
02:00+30se335998 0.3 1009322
05:00+28s2271100 0.3 1009255
08:00+29se326684 0.0 1010420
11:00+32s3254100 0.0 1010882
14:00+33ssw645010 0.0 10081059
17:00+32ssw54564 0.0 1006555
20:00+30ssw226254 0.4 1007217
3 july, sun
sun323:00+31sse2261100 0.6 1009228
02:00+30s3367100 0.1 1007264
05:00+29se3368100 0.1 1009385
08:00+30sse666434 0.1 1010763
11:00+28se4567100 2.5 1011468
14:00+30s446444 0.5 1010655
17:00+30s44615 0.5 1008611
20:00+29sse226510 0.0 1009316
4 july, mon
mon423:00+29sse236685 0.0 1010339
02:00+28sse3471100 0.0 1009381
05:00+28se467421 0.0 1009588
08:00+29se56660 0.0 1011699
11:00+31sse67621 0.0 1011931
14:00+32s66570 0.0 1010795
17:00+31ssw55530 0.0 1008536
20:00+29sw23620 0.0 1009294
5 july, tue
tue523:00+29ssw11610 0.0 1010199
02:00+29se11642 0.0 1009189
05:00+28se12660 0.0 1009161
08:00+30sse23580 0.0 1010480
11:00+32s44490 0.0 1010820
14:00+33ssw44470 0.0 1008757
17:00+32sw44473 0.0 1006524
20:00+31sw33503 0.0 1007263